• In Portugal
  • List of Countries
  • For 7 days
  • Water Temperature
  • Satellite Maps
  • Weather Map
  • Weather Widgets
  • user-avatar
    Login

    Hourly Weather Gieldon

    Today, 19 October, Friday

    Time Temperature Precipitation Wind Pressure Humidity
    00:00 +12°C° 0 mm 2 mps 753 mmHg 93%
    01:00 +10°C° 0 mm 2 mps 754 mmHg 96%
    02:00 +10°C° 0 mm 2 mps 754 mmHg 95%
    03:00 +10°C° 0 mm 2 mps 754 mmHg 95%
    04:00 +9°C° 0 mm 2 mps 754 mmHg 94%
    05:00 +9°C° 0 mm 2 mps 754 mmHg 92%
    06:00 +9°C° 0 mm 2 mps 754 mmHg 90%
    07:00 +9°C° 0 mm 2 mps 755 mmHg 89%
    08:00 +10°C° 0 mm 2 mps 755 mmHg 78%
    09:00 +13°C° 0 mm 2 mps 755 mmHg 67%
    10:00 +14°C° 0 mm 2 mps 755 mmHg 57%
    11:00 +15°C° 0 mm 2 mps 756 mmHg 52%
    12:00 +15°C° 0 mm 2 mps 756 mmHg 48%
    13:00 +16°C° 0 mm 2 mps 756 mmHg 43%
    14:00 +15°C° 0 mm 2 mps 756 mmHg 46%
    15:00 +15°C° 0 mm 2 mps 755 mmHg 48%
    16:00 +14°C° 0 mm 1 mps 755 mmHg 51%
    17:00 +13°C° 0 mm 1 mps 755 mmHg 55%
    18:00 +11°C° 0 mm 1 mps 755 mmHg 60%
    19:00 +10°C° 0 mm 1 mps 756 mmHg 64%
    20:00 +10°C° 0 mm 1 mps 756 mmHg 66%
    21:00 +9°C° 0 mm 1 mps 756 mmHg 69%
    22:00 +9°C° 0 mm 1 mps 756 mmHg 71%
    23:00 +9°C° 0 mm 1 mps 756 mmHg 72%

    Tomorrow, 20 October, Saturday

    Time Temperature Precipitation Wind Pressure Humidity
    00:00 +8°C° 0 mm 1 mps 756 mmHg 73%
    01:00 +8°C° 0 mm 1 mps 756 mmHg 74%
    02:00 +8°C° 0 mm 1 mps 756 mmHg 74%
    03:00 +8°C° 0 mm 1 mps 756 mmHg 74%
    04:00 +8°C° 0 mm 1 mps 756 mmHg 74%
    05:00 +8°C° 0 mm 1 mps 756 mmHg 77%
    06:00 +8°C° 0 mm 1 mps 756 mmHg 80%
    07:00 +6°C° 0 mm 2 mps 757 mmHg 83%
    08:00 +8°C° 0 mm 2 mps 757 mmHg 78%
    09:00 +9°C° 0 mm 3 mps 757 mmHg 72%
    10:00 +11°C° 0 mm 3 mps 757 mmHg 67%
    11:00 +11°C° 0 mm 4 mps 757 mmHg 64%
    12:00 +11°C° 0 mm 4 mps 757 mmHg 62%
    13:00 +12°C° 0 mm 4 mps 757 mmHg 59%
    14:00 +11°C° 0 mm 4 mps 757 mmHg 61%
    15:00 +11°C° 0 mm 4 mps 757 mmHg 63%
    16:00 +10°C° 0 mm 4 mps 757 mmHg 65%
    17:00 +10°C° 0.1 mm 4 mps 757 mmHg 70%
    18:00 +10°C° 0.1 mm 4 mps 757 mmHg 74%
    19:00 +8°C° 0.1 mm 4 mps 757 mmHg 78%
    20:00 +8°C° 0 mm 4 mps 757 mmHg 81%
    21:00 +8°C° 0 mm 3 mps 756 mmHg 84%
    22:00 +8°C° 0 mm 3 mps 756 mmHg 86%
    23:00 +8°C° 0 mm 3 mps 756 mmHg 88%

    Day after tomorrow, 21 October, Sunday

    Time Temperature Precipitation Wind Pressure Humidity
    00:00 +7°C° 0 mm 3 mps 756 mmHg 89%
    01:00 +7°C° 0 mm 3 mps 756 mmHg 91%
    02:00 +7°C° 0 mm 3 mps 756 mmHg 91%
    03:00 +7°C° 0 mm 3 mps 756 mmHg 92%
    04:00 +5°C° 0 mm 3 mps 756 mmHg 93%
    05:00 +6°C° 0 mm 2 mps 756 mmHg 93%
    06:00 +6°C° 0 mm 2 mps 756 mmHg 94%
    07:00 +6°C° 0 mm 2 mps 756 mmHg 94%
    08:00 +8°C° 0 mm 2 mps 757 mmHg 86%
    09:00 +9°C° 0 mm 2 mps 757 mmHg 78%
    10:00 +11°C° 0 mm 3 mps 757 mmHg 70%
    11:00 +13°C° 0 mm 2 mps 757 mmHg 66%
    12:00 +13°C° 0 mm 2 mps 757 mmHg 61%
    13:00 +14°C° 0 mm 2 mps 757 mmHg 57%
    14:00 +14°C° 0 mm 2 mps 757 mmHg 59%
    15:00 +13°C° 0 mm 1 mps 757 mmHg 62%
    16:00 +12°C° 0 mm 1 mps 757 mmHg 64%
    17:00 +11°C° 0 mm 1 mps 756 mmHg 69%
    18:00 +10°C° 0 mm 1 mps 756 mmHg 74%
    19:00 +9°C° 0 mm 1 mps 756 mmHg 79%
    20:00 +9°C° 0 mm 1 mps 756 mmHg 81%
    21:00 +9°C° 0 mm 1 mps 756 mmHg 83%
    22:00 +8°C° 0 mm 1 mps 756 mmHg 85%
    23:00 +8°C° 0 mm 1 mps 756 mmHg 87%

    22 October, Monday

    Time Temperature Precipitation Wind Pressure Humidity
    00:00 +7°C° 0 mm 2 mps 756 mmHg 88%
    01:00 +7°C° 0 mm 2 mps 756 mmHg 89%
    02:00 +6°C° 0 mm 2 mps 755 mmHg 90%
    03:00 +5°C° 0 mm 3 mps 755 mmHg 91%
    04:00 +5°C° 0 mm 3 mps 755 mmHg 92%
    05:00 +5°C° 0 mm 3 mps 755 mmHg 92%
    06:00 +7°C° 0 mm 3 mps 754 mmHg 92%
    07:00 +7°C° 0 mm 3 mps 754 mmHg 92%
    08:00 +6°C° 0.1 mm 4 mps 754 mmHg 89%
    09:00 +7°C° 0.1 mm 4 mps 754 mmHg 86%
    10:00 +8°C° 0.1 mm 4 mps 754 mmHg 84%
    11:00 +8°C° 0.3 mm 4 mps 754 mmHg 84%
    12:00 +8°C° 0.3 mm 4 mps 754 mmHg 85%
    13:00 +8°C° 0.3 mm 4 mps 754 mmHg 86%
    14:00 +8°C° 0.4 mm 4 mps 754 mmHg 82%
    15:00 +9°C° 0.4 mm 3 mps 754 mmHg 79%
    16:00 +9°C° 0.4 mm 3 mps 754 mmHg 75%
    17:00 +8°C° 0.1 mm 3 mps 754 mmHg 76%
    18:00 +8°C° 0.1 mm 3 mps 754 mmHg 77%
    19:00 +7°C° 0.1 mm 3 mps 754 mmHg 78%
    20:00 +7°C° 0 mm 3 mps 754 mmHg 78%
    21:00 +7°C° 0 mm 3 mps 754 mmHg 78%
    22:00 +5°C° 0 mm 3 mps 754 mmHg 79%
    23:00 +5°C° 0 mm 3 mps 754 mmHg 80%

    23 October, Tuesday

    Time Temperature Precipitation Wind Pressure Humidity
    00:00 +5°C° 0 mm 3 mps 754 mmHg 81%
    01:00 +4°C° 0 mm 3 mps 754 mmHg 83%
    02:00 +4°C° 0 mm 3 mps 754 mmHg 84%
    03:00 +4°C° 0 mm 3 mps 753 mmHg 86%
    04:00 +4°C° 0 mm 3 mps 753 mmHg 87%
    05:00 +4°C° 0 mm 3 mps 753 mmHg 87%
    06:00 +4°C° 0 mm 3 mps 752 mmHg 87%
    07:00 +4°C° 0 mm 3 mps 752 mmHg 88%
    08:00 +5°C° 0 mm 4 mps 751 mmHg 82%
    09:00 +6°C° 0 mm 5 mps 751 mmHg 77%
    10:00 +7°C° 0 mm 6 mps 750 mmHg 72%
    11:00 +6°C° 0.6 mm 7 mps 749 mmHg 75%
    12:00 +6°C° 0.6 mm 7 mps 749 mmHg 77%
    13:00 +6°C° 0.6 mm 7 mps 748 mmHg 79%
    14:00 +6°C° 0.3 mm 7 mps 747 mmHg 79%
    15:00 +6°C° 0.3 mm 7 mps 747 mmHg 79%
    16:00 +7°C° 0.3 mm 6 mps 747 mmHg 79%
    17:00 +7°C° 0.1 mm 6 mps 746 mmHg 77%
    18:00 +6°C° 0.1 mm 5 mps 746 mmHg 76%
    19:00 +6°C° 0.1 mm 4 mps 746 mmHg 74%
    20:00 +6°C° 0 mm 4 mps 746 mmHg 75%
    21:00 +5°C° 0 mm 4 mps 746 mmHg 76%
    22:00 +5°C° 0 mm 3 mps 745 mmHg 77%
    23:00 +5°C° 0.5 mm 4 mps 744 mmHg 81%

    24 October, Wednesday

    Time Temperature Precipitation Wind Pressure Humidity
    00:00 +6°C° 0.5 mm 5 mps 743 mmHg 85%
    01:00 +7°C° 0.5 mm 6 mps 742 mmHg 88%
    02:00 +8°C° 0.9 mm 6 mps 741 mmHg 88%
    03:00 +9°C° 0.9 mm 7 mps 739 mmHg 88%
    04:00 +10°C° 0.9 mm 8 mps 738 mmHg 87%
    05:00 +10°C° 0.3 mm 8 mps 737 mmHg 85%
    06:00 +11°C° 0.3 mm 9 mps 736 mmHg 83%
    07:00 +11°C° 0.3 mm 9 mps 736 mmHg 81%
    08:00 +11°C° 0.3 mm 9 mps 736 mmHg 77%
    09:00 +11°C° 0.3 mm 10 mps 736 mmHg 73%
    10:00 +11°C° 0.3 mm 10 mps 736 mmHg 69%
    11:00 +11°C° 0.1 mm 10 mps 736 mmHg 62%
    12:00 +11°C° 0.1 mm 11 mps 736 mmHg 55%
    13:00 +11°C° 0.1 mm 11 mps 737 mmHg 49%
    14:00 +9°C° 0 mm 11 mps 738 mmHg 49%
    15:00 +8°C° 0 mm 10 mps 738 mmHg 49%
    16:00 +8°C° 0 mm 10 mps 739 mmHg 49%
    17:00 +7°C° 0.1 mm 9 mps 740 mmHg 52%
    18:00 +7°C° 0.1 mm 9 mps 741 mmHg 56%
    19:00 +6°C° 0.1 mm 8 mps 742 mmHg 59%
    20:00 +6°C° 0 mm 8 mps 743 mmHg 59%
    21:00 +5°C° 0 mm 7 mps 744 mmHg 59%
    22:00 +5°C° 0 mm 6 mps 745 mmHg 60%
    23:00 +5°C° 0 mm 6 mps 746 mmHg 60%
    Show more